Date,TemperatureHighF,TemperatureAvgF,TemperatureLowF,DewpointHighF,DewpointAvgF,DewpointLowF,HumidityHigh,HumidityAvg,HumidityLow,PressureMaxIn,PressureMinIn,WindSpeedMaxMPH,WindSpeedAvgMPH,GustSpeedMaxMPH,PrecipitationSumIn
2013-2-1,72.0,66.4,60.0,62.0,56.6,52.0,76,71,61,30.19,30.09,17,10,0,0.00
2013-2-2,74.0,68.0,62.0,61.0,59.0,56.0,86,74,56,30.19,30.07,9,4,0,0.00
2013-2-3,73.0,68.4,64.0,63.0,58.4,46.0,87,72,46,30.12,30.02,13,5,0,0.00
2013-2-4,73.0,67.3,61.0,58.0,54.4,51.0,76,64,52,30.09,29.98,14,5,0,0.00
2013-2-5,76.0,71.8,66.0,67.0,63.5,57.0,83,75,65,30.03,29.96,7,2,0,0.00
2013-2-6,78.0,74.4,69.0,70.0,67.4,65.0,88,79,73,30.06,29.97,8,3,0,0.00
2013-2-7,78.0,75.0,73.0,70.0,68.1,65.0,88,79,73,30.03,29.91,9,3,0,0.00
2013-2-8,80.0,75.5,73.0,74.0,71.6,68.0,92,87,80,30.01,29.89,14,7,0,0.00
2013-2-9,78.0,73.3,68.0,72.0,67.0,63.0,89,81,75,30.10,29.98,12,8,0,0.00
2013-2-10,77.0,74.7,73.0,69.0,66.4,64.0,81,76,67,30.18,30.07,17,11,26,0.00
2013-2-11,78.0,75.1,73.0,70.0,68.6,66.0,85,80,76,30.16,30.07,17,10,28,0.00
2013-2-12,80.0,76.5,75.0,73.0,71.1,69.0,89,83,79,30.07,29.94,13,6,23,0.00
2013-2-13,80.0,77.0,75.0,75.0,73.2,72.0,92,88,82,29.99,29.90,10,4,19,0.00
2013-2-14,82.0,77.2,66.0,76.0,73.4,64.0,94,88,81,29.96,29.87,21,4,9,0.00
2013-2-15,75.0,69.7,66.0,71.0,67.8,64.0,96,93,87,29.98,29.88,13,4,0,0.00
2013-2-16,72.0,68.0,61.0,69.0,62.4,53.0,96,83,60,30.05,29.82,25,12,0,0.00
2013-2-17,61.0,55.7,51.0,53.0,41.5,35.0,77,60,44,30.25,30.05,24,14,0,0.00
2013-2-18,70.0,61.8,53.0,59.0,50.8,39.0,78,68,55,30.25,30.14,14,10,0,0.00
2013-2-19,76.0,72.4,69.0,69.0,65.6,59.0,88,79,67,30.14,30.05,13,8,0,0.00
2013-2-20,75.0,71.6,67.0,71.0,68.3,65.0,95,89,82,30.07,29.96,7,1,0,0.00
2013-2-21,79.0,75.4,73.0,71.0,69.1,67.0,91,81,72,30.04,29.95,12,5,0,0.00
2013-2-22,80.0,76.6,74.0,74.0,72.2,70.0,89,86,80,30.05,29.95,11,7,0,0.00
2013-2-23,80.0,77.4,76.0,75.0,73.3,72.0,93,88,84,30.00,29.89,12,6,0,0.00
2013-2-24,81.0,78.0,76.0,76.0,74.5,74.0,96,90,81,29.97,29.87,3,0,0,0.00
2013-2-25,81.0,78.3,77.0,75.0,74.2,73.0,94,87,80,29.88,29.78,12,6,0,0.00
2013-2-26,81.0,78.6,77.0,76.0,74.7,73.0,92,88,83,29.88,29.76,12,6,0,0.00
2013-2-27,82.0,78.0,73.0,76.0,73.4,70.0,92,86,78,29.93,29.83,12,4,0,0.00
2013-2-28,74.0,70.3,66.0,71.0,59.2,52.0,91,69,47,29.97,29.87,14,6,0,0.00